Home   Weather   Arequipa   Past weeks

Flag for Peru Past Weather in Arequipa, Arequipa, Peru — Yesterday and Last 2 Weeks

Now
68 °F

Scattered clouds.


Feels Like: 68 °F
Forecast: N/A
Wind: 10 mph from West

Location: Arequipa Airport

Current Time: Apr 24, 2017 at 3:58:46 pm

Latest Report: Apr 24, 2017 at 3:00 pm


Visibility: N/A

Pressure: 30.21 "Hg (22.98 "Hg at 2345m altitude)

Humidity: 43%

Dew Point: 45 °F

Location of ArequipaLocation

Past Weather in Arequipa — Graph

°F

Arequipa Temperature Yesterday

Maximum temperature yesterday: 68 °F (at 11:00 am)
Minimum temperature yesterday: 48 °F (at 2:00 am)
Average temperature yesterday: 58 °F

High & Low Weather Summary for the Past Weeks

 TemperatureHumidityPressure
High73 °F (Apr 14, 11:00 am)94% (Apr 10, 8:00 pm)30.42 "Hg (Apr 10, 8:00 pm)
Low45 °F (Apr 20, 4:00 am)16% (Apr 20, 8:00 am)30.21 "Hg (Apr 13, 3:00 pm)
Average59 °F61%30.29 "Hg
* Reported Apr 9 2:00 pm — Apr 24 2:00 pm, Arequipa, Weather by CustomWeather, © 2017

Note: Actual official high and low records may vary slightly from our data, if they occured in-between our weather recording intervals... More about our weather records

Advertising

Arequipa Weather History for the Previous 24 Hours

Scroll right to see more
 ConditionsComfort  
Time TempWeatherWind HumidityBarometerVisibility
2:00 pm
Mon, Apr 24
68 °FScattered clouds.12 mph43%30.24 "HgN/A
1:00 pm68 °FScattered clouds.10 mph40%30.24 "HgN/A
12:00 pm70 °FPassing clouds.8 mph40%30.24 "HgN/A
11:00 am68 °FPassing clouds.7 mph40%30.27 "HgN/A
10:00 am66 °FPassing clouds.8 mph43%30.30 "HgN/A
9:00 am64 °FPassing clouds.7 mph40%30.30 "HgN/A
8:00 am61 °FPassing clouds.5 mph48%30.30 "HgN/A
7:00 am54 °FSunny.3 mph63%30.30 "Hg10 mi
6:00 am54 °FSunny.No wind58%30.27 "Hg10 mi
5:00 am52 °FClear.No wind62%30.27 "Hg10 mi
4:00 am52 °FClear.3 mph67%30.27 "Hg10 mi
3:00 am54 °FClear.5 mph63%30.27 "Hg10 mi
2:00 am55 °FClear.5 mph59%30.27 "Hg10 mi
1:00 am54 °FClear.3 mph63%30.30 "Hg10 mi
12:00 am54 °FClear.2 mph63%30.30 "Hg10 mi
11:00 pm
Sun, Apr 23
55 °FClear.3 mph59%30.33 "Hg10 mi
10:00 pm54 °FClear.2 mph63%30.33 "Hg10 mi
9:00 pm54 °FClear.7 mph77%30.33 "Hg10 mi
8:00 pm54 °FClear.7 mph77%30.33 "Hg10 mi
7:00 pm55 °FClear.5 mph77%30.30 "Hg10 mi
6:00 pm57 °FClear.6 mph72%30.30 "Hg10 mi
5:00 pm61 °FPassing clouds.9 mph63%30.30 "HgN/A
4:00 pm64 °FSunny.10 mph52%30.27 "Hg10 mi
3:00 pm68 °FPassing clouds.10 mph46%30.27 "HgN/A
Weather by CustomWeather, © 2017

See weather overviewHow to use our weather pages